[[{"header":{"parameterUnit":"m.s-1","parameterCategory":1,"la1":30.2991,"la2":30.254,"lo1":-89.0895,"lo2":-89.0444,"dy":0.0017,"dx":0.0017,"nx":28,"ny":28,"refTime":"2024-07-31T21:00:00:Z","depth":0,"parameterNumber":2,"parameterNumberName":"U-component_of_WINDS"},"data":[0,0,0,0,0,0,0,0,0,0,0,0,0,0,0,0,0,0,0,0,0,0,0,0,0,0,0,0,0,0,0,0,0,0,0,0,0,0,0,0,0,0,0,0,0,0,0,0,0,0,0,0,0,0,0,0,0,0,2.4193,2.4195,0,2.4306,2.4307,2.4308,2.4317,2.4315,2.4314,2.4313,2.4431,2.4435,2.444,0,0,0,0,0,0,0,0,0,0,0,0,0,2.3988,2.3991,2.4193,2.4195,2.4196,2.4306,2.4307,2.4309,2.4317,2.4315,2.4314,2.4312,2.443,2.4435,2.444,0,0,0,0,0,0,0,0,0,0,0,0,0,2.4086,2.3993,2.4193,2.4213,2.4216,2.4305,2.4307,2.4309,2.4317,2.4315,2.4313,2.4312,2.4428,2.4434,2.4441,2.4518,0,0,2.4461,2.4463,0,0,0,0,0,0,0,0,2.4081,2.4094,2.4209,2.4212,2.4215,2.4295,2.4278,2.4379,2.4318,2.4279,2.4313,2.4311,2.4388,2.4397,2.4423,2.4524,2.4529,2.4461,2.4465,2.4468,2.447,0,0,0,0,0,0,0,2.4074,2.4089,2.4238,2.4211,2.4215,2.4218,2.4229,2.4297,2.4343,2.4282,2.4283,2.4296,2.4389,2.4416,2.4426,2.4531,2.4461,2.4467,2.4471,2.4473,2.4701,2.4703,0,0,0,0,0,0,2.4063,2.4083,2.4234,2.4241,2.4142,2.4223,2.4236,2.4272,2.4342,2.4351,2.4298,2.4296,2.4406,2.4418,2.443,2.4525,2.4468,2.4474,2.4478,2.4699,2.4701,2.4704,0,0,0,0,0,0,2.4058,2.4076,2.423,2.4163,2.4182,2.4228,2.4268,2.4275,2.4302,2.4353,2.4362,2.4317,2.4405,2.4421,2.4496,2.4529,2.4477,2.4483,2.4696,2.4699,2.4702,2.4715,0,0,0,0,0,0,2.4052,2.4075,2.4104,2.4163,2.4186,2.4293,2.427,2.4278,2.4313,2.4312,2.4374,2.4382,2.4405,2.4486,2.4502,2.4537,2.4488,2.4693,2.4698,2.4701,2.4712,2.4719,2.4724,0,0,0,0,0,2.4045,2.4104,2.4105,2.4124,2.4223,2.4295,2.4308,2.4332,2.4315,2.4346,2.4379,2.438,2.4523,2.4494,2.4512,2.4549,2.4691,2.4696,2.4701,2.471,2.4718,2.4724,0,0,0,0,0,0,2.4048,2.4112,2.4114,2.4194,2.4239,2.4296,2.4335,2.434,2.4392,2.4389,2.4417,2.4431,2.4505,2.4535,2.4502,2.4628,2.4605,2.4614,2.4606,2.4614,2.4619,2.4611,2.4493,0,0,0,0,0,2.4058,2.411,2.4163,2.4229,2.4251,2.4289,2.4321,2.4336,2.4384,2.4404,2.4442,2.449,2.4545,2.4581,2.4635,2.4717,2.473,2.4751,2.4757,2.4762,2.4769,2.4814,2.4824,2.472,2.472,2.4719,0,0,2.4079,2.412,2.4152,2.423,2.4267,2.4321,2.4305,2.4363,2.4404,2.4413,2.4486,2.4516,2.4571,2.4649,2.4686,2.4676,2.4801,2.4768,2.4771,2.4776,2.482,2.483,2.4839,2.4723,2.4722,2.4722,0,0,2.4145,2.4181,2.4239,2.4276,2.4332,2.4357,2.437,2.4427,2.4447,2.4521,2.4528,2.4578,2.4672,2.4711,2.4743,2.4823,2.4827,2.484,2.4872,2.4915,2.4923,2.4931,2.4959,2.4969,2.4847,2.4847,2.4847,0,2.4164,2.4245,2.4269,2.4327,2.4361,2.437,2.443,2.4465,2.4535,2.4559,2.4547,2.4665,2.4703,2.4791,2.481,2.4836,2.4853,2.4833,2.492,2.4928,2.4935,2.4962,2.4973,2.4849,2.4848,2.4848,2.4848,0,2.4266,2.4323,2.4363,2.4429,2.4468,2.4527,2.4559,2.4596,2.4607,2.4634,2.4709,2.4754,2.4817,2.4839,2.4851,2.4928,2.4921,2.4914,2.4892,2.4946,2.4972,2.4983,2.485,2.485,2.4849,2.4849,0,0,2.4337,2.4416,2.443,2.446,2.4522,2.4566,2.4625,2.4686,2.4717,2.4765,2.4815,2.4895,2.4889,2.4925,2.4942,2.498,2.504,2.4969,2.497,2.498,2.5128,2.5132,2.5143,2.5043,2.5045,2.5046,2.5123,0,2.441,2.4514,2.4536,2.4626,2.4678,2.4688,2.4739,2.4783,2.4809,2.4858,2.4887,2.4943,2.4931,2.4953,2.4992,2.5024,2.507,2.5019,2.509,2.5092,2.5075,2.5157,2.5162,2.5232,2.5133,2.5135,2.5136,0,2.4508,2.4558,2.4652,2.4707,2.4729,2.4775,2.4832,2.4878,2.4928,2.4945,2.4985,2.4997,2.5059,2.5034,2.512,2.5085,2.5115,2.5135,2.5139,2.5146,2.5117,2.5166,2.5255,2.5265,2.5153,2.5151,2.515,0,2.455,2.464,2.4708,2.4734,2.4799,2.4831,2.486,2.4908,2.4943,2.4993,2.5016,2.5073,2.5104,2.5149,2.5176,2.5155,2.526,2.5237,2.5275,2.5274,2.5296,2.5295,2.5391,2.5317,2.5317,2.5316,2.5316,0,2.4628,2.4685,2.4728,2.477,2.4834,2.4861,2.4924,2.4953,2.4995,2.5043,2.5056,2.5101,2.5135,2.5184,2.5206,2.5274,2.5288,2.5303,2.5308,2.5302,2.53,2.5322,2.5318,2.5319,2.5319,2.5318,2.5318,0,2.4685,2.4716,2.4791,2.4846,2.4862,2.4907,2.4955,2.4996,2.5022,2.5083,2.5099,2.514,2.5199,2.5231,2.5306,2.532,2.5396,2.5399,2.5379,2.5381,2.5417,2.5412,2.553,2.5546,2.5462,2.5463,2.5463,0,2.4733,2.4777,2.4837,2.487,2.4899,2.4951,2.4987,2.5014,2.5051,2.5111,2.5145,2.5204,2.5253,2.5347,2.5385,2.5442,2.5446,2.5483,2.5454,2.5446,2.5445,2.5442,2.5446,2.5488,2.5488,2.5489,2.549,0,2.4814,2.4827,2.4877,2.4932,2.4974,2.5019,2.5064,2.509,2.5125,2.5166,2.5226,2.5264,2.5339,2.5398,2.5458,2.5488,2.5495,2.5498,2.551,2.5503,2.549,2.5497,2.5392,2.5495,2.5495,2.5494,2.5494,2.5494,2.4868,2.4907,2.4955,2.5011,2.5047,2.5088,2.513,2.5161,2.5211,2.5274,2.5288,2.5351,2.54,2.548,2.5512,2.5563,2.5555,2.5572,2.5577,2.558,2.5581,2.5482,2.5574,2.5574,2.5573,2.5573,2.5573,0,2.4948,2.498,2.5031,2.5092,2.5136,2.5138,2.5187,2.5224,2.5279,2.5324,2.5371,2.544,2.5497,2.5539,2.5597,2.563,2.5634,2.5644,2.5642,2.5648,2.5585,2.5569,2.5639,2.5639,2.5639,2.5639,2.5639,2.5639,2.4996,2.5062,2.5081,2.5166,2.5197,2.5259,2.5287,2.5325,2.5361,2.5437,2.5484,2.5511,2.5554,2.5616,2.5668,2.5679,2.57,2.5709,2.572,2.566,2.5653,2.5646,2.5631,2.5714,2.5714,2.5779,2.578,2.578]},{"header":{"parameterUnit":"m.s-1","parameterCategory":1,"la1":30.2991,"la2":30.254,"lo1":-89.0895,"lo2":-89.0444,"dy":0.0017,"dx":0.0017,"nx":28,"ny":28,"refTime":"2024-07-31T21:00:00:Z","depth":0,"parameterNumber":3,"parameterNumberName":"V-component_of_WINDS"},"data":[0,0,0,0,0,0,0,0,0,0,0,0,0,0,0,0,0,0,0,0,0,0,0,0,0,0,0,0,0,0,0,0,0,0,0,0,0,0,0,0,0,0,0,0,0,0,0,0,0,0,0,0,0,0,0,0,0,0,4.0851,4.0851,0,4.088,4.088,4.088,4.0894,4.0894,4.0894,4.0894,4.092,4.092,4.0921,0,0,0,0,0,0,0,0,0,0,0,0,0,4.0802,4.0803,4.0851,4.0851,4.0852,4.088,4.088,4.088,4.0894,4.0894,4.0894,4.0894,4.0919,4.092,4.0921,0,0,0,0,0,0,0,0,0,0,0,0,0,4.0826,4.0804,4.0851,4.0862,4.0863,4.088,4.088,4.0881,4.0894,4.0894,4.0894,4.0894,4.0919,4.092,4.0921,4.0928,0,0,4.0924,4.0925,0,0,0,0,0,0,0,0,4.0825,4.0828,4.086,4.0861,4.0863,4.0883,4.0872,4.0896,4.0894,4.0882,4.0894,4.0894,4.0907,4.0909,4.0915,4.0929,4.093,4.0924,4.0925,4.0925,4.0926,0,0,0,0,0,0,0,4.0823,4.0827,4.0862,4.086,4.0862,4.0864,4.0867,4.0877,4.0894,4.0883,4.0884,4.0888,4.0908,4.0913,4.0915,4.093,4.0924,4.0925,4.0926,4.0926,4.0948,4.0948,0,0,0,0,0,0,4.0821,4.0826,4.0861,4.0863,4.0844,4.0864,4.0868,4.0877,4.0894,4.0897,4.0888,4.0888,4.0912,4.0914,4.0916,4.0923,4.0925,4.0926,4.0927,4.0948,4.0948,4.0948,0,0,0,0,0,0,4.082,4.0824,4.086,4.0845,4.0849,4.0865,4.0875,4.0877,4.0883,4.0898,4.09,4.089,4.0912,4.0915,4.0924,4.0924,4.0927,4.0928,4.0948,4.0948,4.0948,4.0938,0,0,0,0,0,0,4.0818,4.0823,4.0828,4.0845,4.085,4.087,4.0875,4.0878,4.0885,4.0886,4.0901,4.0903,4.0912,4.0923,4.0925,4.0926,4.0929,4.0948,4.0948,4.0948,4.0938,4.0937,4.0937,0,0,0,0,0,4.0816,4.0824,4.0828,4.0832,4.0856,4.087,4.0873,4.0883,4.0885,4.0888,4.0897,4.0903,4.0924,4.0923,4.0927,4.0927,4.0948,4.0948,4.0948,4.0939,4.0938,4.0937,0,0,0,0,0,0,4.0806,4.0826,4.0831,4.0845,4.0855,4.0872,4.0877,4.0882,4.0892,4.0893,4.0904,4.0907,4.0915,4.0922,4.0921,4.0933,4.0936,4.0937,4.0928,4.0927,4.0927,4.0924,4.0929,0,0,0,0,0,4.0805,4.0816,4.0833,4.0843,4.0848,4.0861,4.0867,4.0874,4.0886,4.089,4.09,4.0909,4.0917,4.0923,4.0932,4.0939,4.0941,4.0941,4.094,4.0939,4.0939,4.0941,4.094,4.0947,4.0947,4.0947,0,0,4.0804,4.0816,4.0822,4.0841,4.085,4.0858,4.0865,4.0875,4.088,4.0891,4.0901,4.0908,4.0918,4.0926,4.093,4.0932,4.0938,4.0939,4.0939,4.0939,4.0941,4.094,4.094,4.0947,4.0947,4.0947,0,0,4.0806,4.0817,4.0825,4.0834,4.0848,4.0856,4.0858,4.0873,4.0878,4.0888,4.0895,4.0901,4.0916,4.0923,4.0928,4.0929,4.0933,4.0931,4.0927,4.0928,4.0928,4.0927,4.0926,4.0925,4.0931,4.0931,4.0931,0,4.0802,4.0817,4.0829,4.0837,4.0844,4.0854,4.0861,4.0868,4.0884,4.0887,4.0889,4.0906,4.0914,4.0923,4.0922,4.0927,4.0927,4.0929,4.0927,4.0927,4.0927,4.0925,4.0925,4.0931,4.0931,4.0931,4.0931,0,4.081,4.082,4.0825,4.084,4.0847,4.0855,4.0865,4.0871,4.0876,4.0883,4.0891,4.0901,4.0911,4.0913,4.0919,4.0921,4.0922,4.0925,4.0929,4.0925,4.0924,4.0923,4.093,4.093,4.093,4.093,0,0,4.0809,4.0828,4.0829,4.0834,4.0849,4.0856,4.0862,4.0872,4.0875,4.0884,4.0889,4.09,4.0902,4.0908,4.0914,4.0916,4.0913,4.0919,4.0919,4.0916,4.0913,4.0909,4.0909,4.0916,4.0916,4.0916,4.0911,0,4.0811,4.0825,4.0834,4.0844,4.0851,4.0859,4.0864,4.0872,4.0878,4.0884,4.089,4.0897,4.0901,4.0905,4.0906,4.0913,4.0912,4.0913,4.0918,4.0918,4.0915,4.0908,4.0905,4.0901,4.0911,4.0911,4.0911,0,4.0817,4.0826,4.0836,4.0846,4.085,4.0855,4.0863,4.0869,4.0877,4.0881,4.0886,4.0892,4.0896,4.0899,4.0905,4.0905,4.0907,4.091,4.091,4.0911,4.0914,4.0907,4.09,4.0899,4.0911,4.0911,4.0911,0,4.0812,4.0827,4.0834,4.0838,4.0851,4.0854,4.0859,4.0867,4.0871,4.0878,4.088,4.0887,4.089,4.0894,4.09,4.0902,4.0904,4.0908,4.0906,4.0906,4.0906,4.0906,4.0898,4.0909,4.0909,4.0909,4.0909,0,4.0814,4.0819,4.0831,4.0836,4.0841,4.085,4.0854,4.086,4.0866,4.087,4.0877,4.088,4.0889,4.0892,4.0897,4.0899,4.0901,4.0903,4.0904,4.0902,4.0902,4.0903,4.0903,4.0909,4.0909,4.0909,4.0909,0,4.081,4.0819,4.0827,4.0837,4.084,4.0843,4.0851,4.0855,4.086,4.0865,4.0866,4.0874,4.0879,4.0885,4.0892,4.0895,4.0895,4.0898,4.0893,4.0893,4.089,4.089,4.0882,4.0881,4.0894,4.0894,4.0894,0,4.081,4.0815,4.0825,4.0828,4.0833,4.0839,4.0843,4.0851,4.0854,4.0862,4.0863,4.0868,4.0872,4.0878,4.0883,4.0887,4.0889,4.0886,4.089,4.0887,4.0887,4.0887,4.0886,4.0885,4.0885,4.0885,4.0885,0,4.0809,4.0812,4.0819,4.0825,4.0829,4.0835,4.0841,4.0842,4.0851,4.0854,4.0858,4.0861,4.0867,4.0871,4.0875,4.0878,4.0882,4.0884,4.0883,4.0881,4.0877,4.0877,4.0889,4.0884,4.0884,4.0884,4.0884,4.0884,4.0807,4.0809,4.0817,4.0822,4.0827,4.0831,4.0834,4.0839,4.0843,4.0849,4.0852,4.0856,4.086,4.0867,4.0869,4.0871,4.0873,4.0873,4.0872,4.0872,4.087,4.0877,4.0872,4.0872,4.0872,4.0872,4.0872,0,4.0804,4.0809,4.0814,4.0821,4.0824,4.0828,4.0833,4.0835,4.0839,4.0843,4.0846,4.085,4.0853,4.0858,4.086,4.086,4.0862,4.0861,4.086,4.0861,4.0869,4.0869,4.0859,4.0859,4.0859,4.0859,4.0859,4.0859,4.0804,4.0808,4.0811,4.0817,4.0821,4.0825,4.0827,4.083,4.0833,4.0837,4.0839,4.0843,4.0846,4.0849,4.0851,4.0852,4.0852,4.085,4.0851,4.0859,4.086,4.0862,4.0861,4.085,4.085,4.0843,4.0843,4.0843]}]]